Regional Weather Roundup
Issued by NWS Charleston, WV

Home | Current Version | Previous Version | Graphics & Text | Print | Product List | Glossary On
Versions: 1 2 3 4 5 6 7 8 9 10 11 12 13 14 15 16 17 18 19 20 21 22 23 24 25 26 27 28 29 30 31 32 33
000
ASUS41 KRLX 270310
RWRRLX
West Virginia Regional Weather Roundup
National Weather Service Charleston WV
1100 PM EDT SUN MAR 26 2017

Note: "fair" indicates few or no clouds below 12,000 feet with no
significant weather and/or obstructions to visibility.

WVZ003-270400-
Northern Panhandle of West Virginia

CITY           SKY/WX    TMP DP  RH WIND       PRES   REMARKS
WHEELING       CLOUDY    55  52  89 SE7       29.99F
$$

WVZ009-270400-
Northwest West Virginia

CITY           SKY/WX    TMP DP  RH WIND       PRES   REMARKS
PARKERSBURG    CLOUDY    57  54  89 S6        30.01S
$$

WVZ006-270400-
Western West Virginia

CITY           SKY/WX    TMP DP  RH WIND       PRES   REMARKS
HUNTINGTON     CLOUDY    60  56  86 S6        29.99F
$$

WVZ015-270400-
West Central West Virginia

CITY           SKY/WX    TMP DP  RH WIND       PRES   REMARKS
CHARLESTON     TSTM      58  56  93 S7        30.02R FOG
$$

WVZ022-031-270400-
North Central West Virginia

CITY           SKY/WX    TMP DP  RH WIND       PRES   REMARKS
CLARKSBURG     HVY RAIN  56  55  97 CALM      30.04S FOG
MORGANTOWN     CLOUDY    54  51  90 SE8       30.03F
$$

WVZ025-035-042-045-270400-
Southern West Virginia

CITY           SKY/WX    TMP DP  RH WIND       PRES   REMARKS
BECKLEY        LGT RAIN  56  52  86 S9        30.08S
LOGAN          FOG       59  57  94 CALM      30.04R VSB<1/4
BLUEFIELD      CLEAR     57  50  77 S8G18     30.11S
LEWISBURG      CLOUDY    57  52  82 S10       30.10F
$$

WVZ047-270400-
Northern Mountains of West Virginia

CITY           SKY/WX    TMP DP  RH WIND       PRES   REMARKS
ELKINS         FOG       53  50  89 CALM      30.06F VSB 3/4
$$

WVZ052-270400-
Eastern Panhandle of West Virginia

CITY           SKY/WX    TMP DP  RH WIND       PRES   REMARKS
MARTINSBURG    CLOUDY    46  44  93 E6        30.19F FOG
PETERSBURG     RAIN      49  47  94 CALM      30.15F
$$




USA.gov is the U.S. government's official web portal to all federal, state and local government web resources and services.